Retour au catalogue

CZ-8 R/B

ActifLEO
NORAD 65314·ROCKET BODY·🇨🇳 China

Lancé Aug 25, 2025 depuis Wenchang Space Launch Site

Loading…

Prochains Passages (prochaines 24 heures)

TLE

FraisSource: Space-Track

Époque: Sep 14, 2026, 14:15 UTC

1 65314U 25187K   26257.59386303 -.00000062  00000-0  36727-4 0  9999
2 65314  50.0095  13.1638 0116112 359.3729   0.7025 14.30698593 55093

Suivez CZ-8 R/B en temps réel avec AllMySat

Download on the App Store